sat.trackr.live / text

‹ back to catalog

GEESAT-4 11

NORAD 65129 · 2025-170L

PAYLOAD ACTIVE UNKNOWN

§ Identity

Operator
Country
PRC
Launch date
2025-08-08
Launch site
YSLA
Launch vehicle
Mass (kg)
RCS (m²)

External: N2YO · Heavens-Above · Gunter

§ Orbital elements

Epoch: 2026-09-21T22:18:13.236768Z

Period
97.02 min
Inclination
49.9834°
Eccentricity
0.0007264
Mean motion
14.84277433 rev/d
Perigee alt
610.8 km
Apogee alt
620.9 km
Semi-major
6,994.0 km
B*
1.4293e-4
RAAN
84.9487°
Arg perigee
103.7725°
Mean anomaly
256.4023°
Rev number
6,080

§ Raw data

GEESAT-4 111 65129U 25170L   26264.92931987  .00000982  00000+0  14293-3 0  99962 65129  49.9834  84.9487 0007264 103.7725 256.4023 14.84277433 60805

JSON: /api/v1/satellites/65129 · /tle

For live sub-satellite position, see the globe view (requires WebGL).

§ Visibility from observer

Set your observer location to see the next 7 days of passes ≥ 10°. The values pass through the URL so the page stays shareable.

No JS? Fill the form by hand. The geolocation button needs JavaScript.